Home   Weather   Austin   Past weeks

Flag for USA Past Weather in Austin, Texas, USA — Yesterday and Last 2 Weeks

Now
87 °F

Sunny.


Feels Like: 89 °F
Forecast: 76 / 95 °F
Wind: 8 mph from South

Location: Camp Mabry / Austin City

Current Time: May 25, 2017 at 9:01:31 pm

Latest Report: May 25, 2017 at 7:51 pm


Visibility: 10 mi

Pressure: 29.66 "Hg

Humidity: 50%

Dew Point: 66 °F

Location of AustinLocation

Past Weather in Austin — Graph

°F

Austin Temperature Yesterday

Maximum temperature yesterday: 87 °F (at 4:51 pm)
Minimum temperature yesterday: 56 °F (at 5:51 am)
Average temperature yesterday: 71 °F

High & Low Weather Summary for the Past Weeks

 TemperatureHumidityPressure
High93 °F (May 19, 1:51 pm)100% (May 23, 7:27 am)30.11 "Hg (May 23, 7:27 am)
Low56 °F (May 24, 5:51 am)21% (May 24, 5:51 pm)29.65 "Hg (May 25, 5:51 pm)
Average75 °F71%29.86 "Hg
* Reported May 10 6:51 pm — May 25 6:51 pm, Austin. Weather by CustomWeather, © 2017

Note: Actual official high and low records may vary slightly from our data, if they occured in-between our weather recording intervals... More about our weather records

Advertising

Austin Weather History for the Previous 24 Hours

Scroll right to see more
 ConditionsComfort  
Time TempWeatherWind HumidityBarometerVisibility
6:51 pm
Thu, May 25
90 °FSunny.7 mph43%29.65 "Hg10 mi
5:51 pm92 °FSunny.8 mph38%29.65 "Hg10 mi
4:51 pm92 °FSunny.8 mph38%29.66 "Hg10 mi
3:51 pm93 °FSunny.6 mph36%29.68 "Hg10 mi
2:51 pm91 °FSunny.8 mph36%29.70 "Hg10 mi
1:51 pm90 °FSunny.13 mph33%29.72 "Hg10 mi
12:51 pm87 °FSunny.10 mph36%29.75 "Hg10 mi
11:51 am84 °FSunny.10 mph37%29.74 "Hg10 mi
10:51 am81 °FSunny.8 mph42%29.76 "Hg10 mi
9:51 am77 °FWarm.8 mph50%29.76 "Hg10 mi
8:51 am73 °FSunny.7 mph62%29.76 "Hg10 mi
7:51 am69 °FSunny.8 mph63%29.75 "Hg10 mi
6:51 am64 °FSunny.5 mph65%29.74 "Hg10 mi
5:51 am64 °FClear.6 mph65%29.72 "Hg10 mi
4:51 am64 °FClear.3 mph65%29.71 "Hg10 mi
3:51 am63 °FClear.5 mph68%29.70 "Hg10 mi
2:51 am63 °FClear.3 mph73%29.71 "Hg10 mi
1:51 am65 °FClear.No wind68%29.71 "Hg10 mi
12:51 am67 °FClear.No wind61%29.73 "Hg10 mi
11:51 pm
Wed, May 24
69 °FClear.No wind59%29.75 "Hg10 mi
10:51 pm70 °FClear.No wind55%29.74 "Hg10 mi
9:51 pm70 °FClear.No wind59%29.72 "Hg10 mi
Weather by CustomWeather, © 2017

See weather overviewHow to use our weather pages